Location: Acheville
(50.3840°N, 2.8827°E)
Time: 11:07:00
(UTC+00:00)

CZ-4 R/B - Pass Details

Date: 24 October 2021
Orbit: 531 x 595 km, 97.8° (Epoch: 30 November)

Event Time Altitude Azimuth Distance (km) Brightness Sun altitude
Rises 19:37:26 0° 206° (SSW) 2,747 5.0 -28.9°
Reaches altitude 10° 19:40:07 10° 226° (SW) 1,870 4.3 -29.3°
Maximum altitude 19:42:56 18° 270° (W) 1,442 4.1 -29.8°
Drops below altitude 10° 19:45:48 10° 314° (NW) 1,907 4.8 -30.2°
Sets 19:48:35 0° 333° (NNW) 2,824 5.6 -30.6°
